ACA326 KBDL-CYHZ

Flight info

Callsign ACA326
Flight time 1h 15m
Altitude 35000
Route PUT DCT BOS Q75 COPLY Q475 TUSKY PEGGY5
Aircraft A20N/M-SDE2E3FGHIRWXY/LB1

Departure

Time 2025-12-30 02:06
Airport Bradley International Airport (KBDL)

Arrival

Time 2025-12-30 03:21
Airport Halifax / Stanfield International Airport (CYHZ)
Time Latitude Longitude Altitude Speed Heading
2025-12-30 01:23 41.93145 -72.68503 184 ft 0 kts 155°
2025-12-30 01:50 41.93167 -72.68521 158 ft 2 kts 136°
2025-12-30 01:50 41.93172 -72.68560 206 ft 2 kts 55°
2025-12-30 01:51 41.93169 -72.68566 205 ft 0 kts 47°
2025-12-30 01:53 41.93170 -72.68565 205 ft 1 kts 47°
2025-12-30 01:54 41.93293 -72.68401 183 ft 14 kts 44°
2025-12-30 01:54 41.93237 -72.68162 181 ft 11 kts 134°
2025-12-30 01:55 41.93158 -72.68056 183 ft 0 kts 136°
2025-12-30 01:56 41.93157 -72.68054 183 ft 0 kts 136°
2025-12-30 01:56 41.93123 -72.68023 183 ft 0 kts 223°
2025-12-30 01:57 41.93233 -72.68158 181 ft 25 kts 314°
2025-12-30 01:57 41.93432 -72.68428 180 ft 13 kts 314°
2025-12-30 01:58 41.93547 -72.68585 184 ft 12 kts 314°
2025-12-30 01:58 41.93587 -72.68638 190 ft 5 kts 313°
2025-12-30 01:59 41.93735 -72.68679 186 ft 21 kts 45°
2025-12-30 01:59 41.93857 -72.68529 193 ft 24 kts 41°
2025-12-30 02:00 41.94089 -72.68246 189 ft 21 kts 41°
2025-12-30 02:00 41.94235 -72.68070 199 ft 21 kts 42°
2025-12-30 02:01 41.94482 -72.67750 193 ft 26 kts 43°
2025-12-30 02:01 41.94867 -72.67248 183 ft 20 kts 46°
2025-12-30 02:02 41.94944 -72.67151 183 ft 0 kts 32°
2025-12-30 02:02 41.94962 -72.67142 183 ft 2 kts
2025-12-30 02:03 41.94982 -72.67143 183 ft 4 kts 351°
2025-12-30 02:03 41.94996 -72.67151 182 ft 4 kts 332°
2025-12-30 02:04 41.95016 -72.67286 182 ft 0 kts 223°
2025-12-30 02:05 41.95015 -72.67288 182 ft 4 kts 223°
2025-12-30 02:05 41.93517 -72.69223 395 ft 162 kts 231°
2025-12-30 02:06 41.91625 -72.70801 2097 ft 154 kts 209°
2025-12-30 02:06 41.89337 -72.71695 2787 ft 191 kts 206°
2025-12-30 02:07 41.87971 -72.72243 2915 ft 219 kts 206°
2025-12-30 02:07 41.84862 -72.73598 3776 ft 246 kts 207°
2025-12-30 02:08 41.81572 -72.75027 4039 ft 250 kts 207°
2025-12-30 02:08 41.78187 -72.76228 4041 ft 260 kts 191°
2025-12-30 02:09 41.74769 -72.74398 4044 ft 290 kts 132°
2025-12-30 02:09 41.74581 -72.66562 4039 ft 293 kts 68°
2025-12-30 02:10 41.76076 -72.61478 4994 ft 295 kts 63°
2025-12-30 02:10 41.76845 -72.58954 5927 ft 290 kts 65°
2025-12-30 02:11 41.78305 -72.53796 7169 ft 304 kts 69°
2025-12-30 02:11 41.79720 -72.48309 8481 ft 318 kts 72°
2025-12-30 02:12 41.81148 -72.42554 9794 ft 332 kts 74°
2025-12-30 02:12 41.82655 -72.36444 10593 ft 364 kts 75°
2025-12-30 02:13 41.84302 -72.29791 11549 ft 388 kts 75°
2025-12-30 02:13 41.86041 -72.22813 12796 ft 403 kts 75°
2025-12-30 02:14 41.88760 -72.11873 14630 ft 419 kts 75°
2025-12-30 02:14 41.89683 -72.08152 15242 ft 423 kts 75°
2025-12-30 02:15 41.91552 -72.00591 16472 ft 431 kts 75°
2025-12-30 02:15 41.93437 -71.92936 17646 ft 439 kts 74°
2025-12-30 02:16 41.95516 -71.85167 18687 ft 446 kts 64°
2025-12-30 02:16 41.98572 -71.77860 19863 ft 451 kts 58°
2025-12-30 02:17 42.01955 -71.70701 20976 ft 457 kts 56°
2025-12-30 02:17 42.05417 -71.63525 22059 ft 463 kts 56°
2025-12-30 02:18 42.10707 -71.52420 23218 ft 482 kts 58°
2025-12-30 02:18 42.12519 -71.48580 23516 ft 488 kts 58°
2025-12-30 02:19 42.16168 -71.40824 24412 ft 493 kts 58°
2025-12-30 02:20 42.29314 -71.12730 27006 ft 516 kts 58°
2025-12-30 02:23 42.44288 -70.72743 29424 ft 545 kts 70°
2025-12-30 02:25 42.56573 -70.34620 31802 ft 549 kts 70°
2025-12-30 02:27 42.70172 -69.91805 34259 ft 546 kts 70°
2025-12-30 02:29 42.80527 -69.58491 34268 ft 545 kts 71°
2025-12-30 02:31 42.93671 -69.15588 34227 ft 548 kts 73°
2025-12-30 02:33 43.03919 -68.81644 34187 ft 549 kts 73°
2025-12-30 02:35 43.16977 -68.37724 34235 ft 551 kts 74°
2025-12-30 02:37 43.27020 -68.03427 34224 ft 555 kts 75°
2025-12-30 02:39 43.38393 -67.64012 34214 ft 555 kts 76°
2025-12-30 02:41 43.49594 -67.24588 34205 ft 553 kts 76°
2025-12-30 02:43 43.61105 -66.85390 34081 ft 548 kts 73°
2025-12-30 02:45 43.72772 -66.48297 31968 ft 518 kts 74°
2025-12-30 02:47 43.84000 -66.12034 29890 ft 502 kts 74°
2025-12-30 02:48 43.93343 -65.81457 28083 ft 482 kts 75°
2025-12-30 02:51 44.04798 -65.43455 25754 ft 467 kts 74°
2025-12-30 02:52 44.09726 -65.26936 24779 ft 458 kts 74°
2025-12-30 02:52 44.11735 -65.20168 24388 ft 454 kts 74°
2025-12-30 02:52 44.13323 -65.14810 24084 ft 450 kts 74°
2025-12-30 02:53 44.16890 -65.02738 23338 ft 448 kts 73°
2025-12-30 02:54 44.20014 -64.92163 22727 ft 441 kts 72°
2025-12-30 02:54 44.21493 -64.88398 22466 ft 445 kts 57°
2025-12-30 02:55 44.25451 -64.81785 21940 ft 443 kts 50°
2025-12-30 02:55 44.30237 -64.74406 21369 ft 438 kts 49°
2025-12-30 02:56 44.33615 -64.69220 20995 ft 430 kts 50°
2025-12-30 02:56 44.37599 -64.63091 20481 ft 424 kts 50°
2025-12-30 02:57 44.41544 -64.56999 20014 ft 420 kts 51°
2025-12-30 02:57 44.47381 -64.47973 19290 ft 412 kts 50°
2025-12-30 02:58 44.51194 -64.42085 18807 ft 405 kts 50°
2025-12-30 02:58 44.54722 -64.36622 18383 ft 401 kts 51°
2025-12-30 02:59 44.56621 -64.33676 18142 ft 398 kts 51°
2025-12-30 02:59 44.60329 -64.27910 16905 ft 404 kts 50°
2025-12-30 03:00 44.64152 -64.21955 15550 ft 407 kts 49°
2025-12-30 03:00 44.67903 -64.16102 14271 ft 398 kts 50°
2025-12-30 03:01 44.71476 -64.10519 13591 ft 372 kts 50°
2025-12-30 03:01 44.76509 -64.02631 12007 ft 356 kts 51°
2025-12-30 03:02 44.79794 -63.97468 10894 ft 351 kts 51°
2025-12-30 03:02 44.83016 -63.92397 9831 ft 343 kts 53°
2025-12-30 03:03 44.84571 -63.89944 9338 ft 339 kts 53°
2025-12-30 03:03 44.87662 -63.85068 8356 ft 327 kts 53°
2025-12-30 03:04 44.90697 -63.80690 7935 ft 304 kts 32°
2025-12-30 03:04 44.94660 -63.79344 7275 ft 290 kts 23°
2025-12-30 03:04 44.96241 -63.77717 6848 ft 278 kts 60°
2025-12-30 03:05 44.97477 -63.68073 4465 ft 262 kts 129°
2025-12-30 03:06 44.95321 -63.63843 3173 ft 266 kts 133°
2025-12-30 03:06 44.93257 -63.59600 2217 ft 259 kts 130°
2025-12-30 03:07 44.91297 -63.55637 1607 ft 232 kts 128°
2025-12-30 03:07 44.90425 -63.53880 1179 ft 203 kts 124°
2025-12-30 03:08 44.89044 -63.50993 667 ft 169 kts 126°
2025-12-30 03:08 44.87880 -63.48809 2744 ft 124 kts 140°
2025-12-30 03:09 44.86701 -63.46621 2987 ft 162 kts 138°
2025-12-30 03:09 44.83937 -63.46674 2998 ft 200 kts 238°
2025-12-30 03:10 44.83867 -63.48727 2995 ft 230 kts 271°
2025-12-30 03:10 44.85235 -63.53057 2996 ft 250 kts 289°
2025-12-30 03:11 44.86579 -63.57450 2982 ft 242 kts 278°
2025-12-30 03:11 44.87729 -63.61911 3006 ft 244 kts 278°
2025-12-30 03:12 44.88942 -63.66416 2993 ft 247 kts 279°
2025-12-30 03:12 44.90214 -63.70887 2990 ft 247 kts 280°
2025-12-30 03:13 44.91511 -63.75376 2968 ft 247 kts 280°
2025-12-30 03:13 44.93295 -63.79602 2955 ft 268 kts 316°
2025-12-30 03:14 44.96834 -63.80064 2964 ft 260 kts 41°
2025-12-30 03:14 44.98363 -63.76243 2970 ft 219 kts 93°
2025-12-30 03:15 44.98726 -63.72115 2965 ft 197 kts 115°
2025-12-30 03:15 44.97717 -63.68699 2950 ft 183 kts 133°
2025-12-30 03:16 44.96294 -63.65734 2920 ft 182 kts 135°
2025-12-30 03:16 44.94867 -63.62832 2471 ft 176 kts 134°
2025-12-30 03:16 44.94179 -63.61441 2213 ft 170 kts 133°
2025-12-30 03:17 44.92456 -63.57959 1630 ft 112 kts 130°
2025-12-30 03:18 44.91689 -63.56418 1338 ft 88 kts 128°
2025-12-30 03:18 44.90928 -63.54892 1018 ft 101 kts 126°
2025-12-30 03:19 44.90099 -63.53222 733 ft 103 kts 126°
2025-12-30 03:19 44.89293 -63.51581 483 ft 99 kts 126°
2025-12-30 03:20 44.88690 -63.50377 459 ft 50 kts 124°
2025-12-30 03:20 44.88499 -63.49992 460 ft 51 kts 126°
2025-12-30 03:20 44.88314 -63.49900 461 ft 9 kts 214°
2025-12-30 03:21 44.88364 -63.50161 462 ft 13 kts 288°
2025-12-30 03:22 44.88315 -63.50961 460 ft 34 kts 270°
2025-12-30 03:22 44.88442 -63.51204 461 ft 28 kts 350°
2025-12-30 03:23 44.88532 -63.51262 460 ft 9 kts 227°
2025-12-30 03:23 44.88510 -63.51331 460 ft 0 kts 264°